Home   Weather   Canberra   Past weeks

Flag for Australia Past Weather in Canberra, Australian Capital Territory, Australia — Yesterday and Last 2 Weeks

Now
54 °F

Clear.


Feels Like: 52 °F
Forecast: 44 / 75 °F
Wind: 6 mph from North

Location: Canberra Airport

Current Time: Dec 9, 2016 at 10:59:11 pm

Latest Report: Dec 9, 2016 at 10:00 pm


Visibility: N/A

Pressure: 30.07 "Hg (28.06 "Hg at 577m altitude)

Humidity: 67%

Dew Point: 43 °F

Location of CanberraLocation

Past Weather in Canberra — Graph

°F

Canberra Temperature Yesterday

Maximum temperature yesterday: 86 °F (at 2:00 pm)
Minimum temperature yesterday: 50 °F (at 4:00 am)
Average temperature yesterday: 66 °F

High & Low Weather Summary for the Past Weeks

 TemperatureHumidityPressure
High91 °F (Dec 4, 3:30 pm)100% (Nov 26, 6:00 am)30.07 "Hg (Nov 26, 6:00 am)
Low43 °F (Nov 25, 3:00 am)17% (Dec 1, 1:30 pm)29.47 "Hg (Dec 8, 4:30 pm)
Average67 °F59%29.90 "Hg
* Reported Nov 24 9:00 pm — Dec 9 9:30 pm, Canberra, Weather by CustomWeather, © 2016

Note: Actual official high and low records may vary slightly from our data, if they occured in-between our weather recording intervals... More about our weather records

Advertising

Canberra Weather History for the Previous 24 Hours

Scroll right to see more
 ConditionsComfort  
Time TempWeatherWind HumidityBarometerVisibility
9:30 pm
Fri, Dec 9
57 °FClear.8 mph59%30.04 "HgN/A
9:00 pm57 °FClear.9 mph55%30.01 "HgN/A
8:30 pm61 °FClear.10 mph48%30.01 "Hg10 mi
8:00 pm63 °FSunny.10 mph45%29.98 "Hg10 mi
7:00 pm66 °FPassing clouds.15 mph40%29.95 "HgN/A
6:30 pm68 °FSunny.14 mph38%29.92 "Hg10 mi
6:00 pm68 °FSunny.13 mph38%29.92 "Hg10 mi
5:30 pm66 °FSunny.17 mph37%29.92 "Hg10 mi
5:00 pm68 °FSunny.15 mph35%29.89 "Hg10 mi
4:30 pm70 °FSunny.15 mph33%29.89 "Hg10 mi
4:00 pm68 °FSunny.17 mph35%29.89 "Hg10 mi
3:30 pm68 °FSunny.17 mph35%29.89 "Hg10 mi
3:00 pm68 °FSunny.21 mph35%29.86 "Hg10 mi
2:30 pm66 °FSunny.17 mph37%29.89 "Hg10 mi
2:00 pm66 °FSunny.20 mph37%29.86 "Hg10 mi
1:30 pm66 °FSunny.18 mph35%29.86 "Hg10 mi
1:00 pm66 °FSunny.18 mph37%29.86 "Hg10 mi
12:30 pm64 °FSunny.20 mph40%29.86 "Hg10 mi
12:00 pm64 °FSunny.18 mph40%29.86 "Hg10 mi
11:30 am64 °FSunny.15 mph40%29.86 "Hg10 mi
11:00 am64 °FSunny.17 mph34%29.83 "Hg10 mi
10:00 am61 °FPassing clouds.15 mph42%29.83 "HgN/A
9:30 am59 °FPassing clouds.17 mph45%29.80 "HgN/A
9:00 am59 °FPassing clouds.17 mph51%29.80 "HgN/A
8:30 am57 °FPassing clouds.15 mph51%29.80 "HgN/A
8:00 am57 °FPassing clouds.17 mph55%29.80 "HgN/A
7:30 am55 °FPassing clouds.14 mph63%29.77 "HgN/A
7:00 am54 °FPartly sunny.13 mph67%29.77 "HgN/A
6:30 am54 °FPartly sunny.14 mph67%29.74 "HgN/A
6:00 am54 °FPartly sunny.15 mph63%29.74 "HgN/A
5:30 am52 °FPassing clouds.13 mph72%29.71 "HgN/A
5:00 am54 °FPassing clouds.15 mph67%29.68 "HgN/A
4:00 am54 °FPassing clouds.15 mph67%29.68 "HgN/A
3:30 am54 °FPartly cloudy.14 mph67%29.65 "HgN/A
3:00 am54 °FPassing clouds.12 mph72%29.65 "HgN/A
2:30 am55 °FClear.13 mph63%29.65 "HgN/A
2:00 am55 °FClear.9 mph63%29.65 "HgN/A
1:00 am57 °FPassing clouds.17 mph63%29.62 "HgN/A
12:00 am55 °FClear.9 mph59%29.65 "HgN/A
11:00 pm
Thu, Dec 8
57 °FClear.13 mph59%29.65 "HgN/A
10:00 pm59 °FPassing clouds.13 mph68%29.62 "HgN/A
Weather by CustomWeather, © 2016

See weather overviewHow to use our weather pages